Weather History for West Plains, MO

Change the Weather History Date:

Sunday, February 5, 2012

  Actual Average Record
Temperature  
Mean Temperature 36 °F 36 °F  
Max Temperature 42 °F 47 °F 71 °F (1967)
Min Temperature 30 °F 25 °F -9 °F (1996)
Degree Days  
Heating Degree Days 29 29  
Month to date heating degree days 96 149  
Since 1 July heating degree days 2436 2853  
Cooling Degree Days 0 0  
Month to date cooling degree days 0 0  
Year to date cooling degree days 0 0  
Moisture  
Dew Point 34 °F    
Average Humidity 83    
Maximum Humidity 96    
Minimum Humidity 70    
Precipitation  
Precipitation 0.00 in 0.09 in 1.60 in (1964)
Month to date precipitation 1.49 0.44  
Year to date precipitation 4.07 3.16  
Sea Level Pressure  
Sea Level Pressure 30.27 in    
Wind  
Wind Speed 7 mph (NW)    
Max Wind Speed 14 mph    
Max Gust Speed 21 mph    
Visibility 10 miles    
Events      
T = Trace of Precipitation, MM = Missing Value Source: NWS Daily Summary

Daily Weather History Graph

Daily Weather History Graph

Search for Another Location

Airport:

Trip Planner

Search our weather history database for the weather conditions in past years. The results will help you decide how hot, cold, wet, or windy it might be!

Date:

Astronomy

Feb. 05, 2012 Rise Set
Actual Time 7:06 AM CST 5:36 PM CST
Civil Twilight 6:39 AM CST 6:03 PM CST
Nautical Twilight 6:08 AM CST 6:34 PM CST
Astronomical Twilight 5:38 AM CST 7:05 PM CST
Moon 3:37 PM CST (2/5) 5:15 AM CST (2/5)
Length of Visible Light 11h 24m
Length of Day
10h 29m
Waxing Gibbous, 95% of the Moon is Illuminated
Feb 5
Waxing Gibbous
Feb 7
Full
Feb 14
Last Quarter
Feb 21
New
Feb 29
First Quarter

Hourly Weather History & Observations

Time (CST) Temp. Windchill Dew Point Humidity Pressure Visibility Wind Dir Wind Speed Gust Speed Precip Events Conditions
12:53 AM 39.9 °F 35.8 °F 36.0 °F 86% 30.17 in 10.0 mi WNW 5.8 mph - N/A   Overcast
1:53 AM 39.0 °F 32.8 °F 35.1 °F 86% 30.19 in 10.0 mi WNW 9.2 mph - N/A   Overcast
2:53 AM 39.0 °F 31.4 °F 35.1 °F 86% 30.20 in 10.0 mi WNW 12.7 mph 18.4 mph N/A   Overcast
3:53 AM 39.0 °F 34.0 °F 35.1 °F 86% 30.20 in 10.0 mi WNW 6.9 mph - N/A   Overcast
4:53 AM 37.9 °F 31.5 °F 35.1 °F 89% 30.21 in 10.0 mi WNW 9.2 mph - N/A   Overcast
5:53 AM 37.9 °F 32.1 °F 34.0 °F 86% 30.22 in 10.0 mi WNW 8.1 mph - N/A   Overcast
6:53 AM 37.9 °F 32.7 °F 34.0 °F 86% 30.24 in 10.0 mi NW 6.9 mph - N/A   Overcast
7:53 AM 37.9 °F 31.5 °F 34.0 °F 86% 30.26 in 10.0 mi NW 9.2 mph - N/A   Overcast
8:11 AM 37.4 °F 30.8 °F 33.8 °F 87% 30.25 in 10.0 mi NW 9.2 mph - N/A   Overcast
8:53 AM 37.9 °F 32.1 °F 34.0 °F 86% 30.27 in 10.0 mi NW 8.1 mph - N/A   Overcast
9:53 AM 39.0 °F 32.8 °F 35.1 °F 86% 30.29 in 10.0 mi NW 9.2 mph - N/A   Overcast
10:53 AM 39.0 °F 34.8 °F 37.0 °F 93% 30.31 in 7.0 mi WNW 5.8 mph - N/A   Overcast
11:12 AM 39.2 °F 34.2 °F 35.6 °F 87% 30.30 in 10.0 mi WNW 6.9 mph - N/A   Overcast
11:53 AM 39.9 °F 33.9 °F 36.0 °F 86% 30.31 in 10.0 mi NW 9.2 mph - N/A   Overcast
12:53 PM 41.0 °F 37.1 °F 36.0 °F 82% 30.28 in 10.0 mi NW 5.8 mph - N/A   Overcast
1:53 PM 41.0 °F 35.2 °F 34.0 °F 76% 30.29 in 10.0 mi NNW 9.2 mph - N/A   Overcast
2:03 PM 41.0 °F 35.2 °F 33.8 °F 76% 30.27 in 10.0 mi NW 9.2 mph - N/A   Overcast
2:53 PM 41.0 °F 35.8 °F 34.0 °F 76% 30.29 in 10.0 mi North 8.1 mph - N/A   Overcast
3:53 PM 42.1 °F 39.2 °F 34.0 °F 73% 30.28 in 10.0 mi NW 4.6 mph - N/A   Overcast
4:53 PM 41.0 °F 35.8 °F 34.0 °F 76% 30.29 in 10.0 mi North 8.1 mph - N/A   Overcast
5:53 PM 39.9 °F 34.5 °F 34.0 °F 79% 30.30 in 10.0 mi North 8.1 mph - N/A   Overcast
6:25 PM 39.2 °F 35.0 °F 35.6 °F 87% 30.29 in 10.0 mi North 5.8 mph - N/A   Overcast
6:39 PM 39.2 °F 34.2 °F 35.6 °F 87% 30.29 in 10.0 mi NNE 6.9 mph - N/A   Overcast
6:53 PM 39.0 °F 33.4 °F 34.0 °F 82% 30.31 in 10.0 mi NNE 8.1 mph - N/A   Overcast
7:29 PM 39.2 °F 34.2 °F 33.8 °F 81% 30.30 in 10.0 mi North 6.9 mph - N/A   Overcast
7:53 PM 39.0 °F - 35.1 °F 86% 30.32 in 10.0 mi Calm Calm - N/A   Overcast
8:53 PM 39.0 °F - 35.1 °F 86% 30.33 in 10.0 mi Calm Calm - N/A   Overcast
9:53 PM 36.0 °F 33.3 °F 33.1 °F 89% 30.32 in 8.0 mi NW 3.5 mph - N/A   Mostly Cloudy
10:53 PM 34.0 °F - 32.0 °F 92% 30.33 in 6.0 mi Calm Calm - N/A   Clear
11:53 PM 30.0 °F - 28.9 °F 96% 30.33 in 4.0 mi Calm Calm - N/A   Clear